Theta_e
333 325 323 325 335 338 337 337 336 335 333 332 332 332 330 329 329 328 328 328 328 327 326 325 326 326 327 329 330 330 330 330 330 330 330 335 330 344 342 340 337 330 326
334 326 323 323 325 328 331 333 334 334 333 333 333 332 330 329 328 328 328 328 327 326 327 329 330 330 330 332 333 333 334 334 334 334 335 335 342 344 346 342 342 343 338
335 330 325 324 324 325 326 329 332 333 331 332 332 331 329 328 328 328 328 327 327 329 330 332 334 336 336 335 333 330 325 323 321 320 321 336 341 347 349 345 344 341 337
335 333 331 329 327 326 326 328 329 329 329 330 329 329 328 328 328 328 327 328 331 336 338 338 335 329 322 315 314 314 316 317 317 316 330 327 328 338 344 344 337 334 328
335 335 334 333 332 331 328 328 328 328 328 328 328 328 328 327 327 327 329 335 338 338 329 319 315 315 316 319 319 319 320 320 320 320 320 327 332 336 330 326 328 324 322
335 335 334 333 332 331 330 329 328 328 328 328 328 327 327 327 328 330 335 337 329 317 314 317 319 320 320 320 320 320 320 320 321 321 320 322 326 328 330 326 325 325 325
337 333 333 332 330 329 329 328 327 327 327 327 327 327 327 329 331 333 334 323 315 318 319 320 321 321 321 321 322 323 324 323 326 328 327 325 322 322 326 328 326 326 326
347 335 327 326 326 326 327 326 326 326 326 327 328 330 331 331 330 328 318 316 319 320 321 321 321 322 325 328 330 331 331 330 330 331 329 329 328 327 328 329 328 326 326
347 344 326 324 325 325 325 325 326 327 328 330 330 328 325 323 320 316 318 323 322 324 326 328 328 331 331 331 332 333 334 334 333 334 330 331 332 331 330 329 327 328 328
341 333 328 326 325 326 327 328 328 329 329 325 322 318 316 323 322 328 327 330 332 332 333 334 334 333 331 333 333 334 334 334 333 334 334 334 333 331 329 327 327 328 328
341 340 330 330 328 329 329 329 328 326 321 318 317 333 337 334 333 329 328 333 333 335 334 334 334 333 331 332 332 332 333 332 332 333 334 333 332 331 330 329 327 326 326
343 339 337 333 331 327 331 323 321 319 317 318 319 330 332 332 331 330 332 334 334 335 333 333 333 331 330 331 332 331 330 329 329 329 331 330 329 327 323 322 321 321 320
340 339 339 339 337 337 337 334 326 323 324 327 327 325 332 334 334 334 334 334 334 334 332 331 329 330 330 329 328 324 322 319 319 323 323 327 328 327 323 320 320 319 318
338 338 339 339 337 339 338 333 332 332 332 332 330 330 327 332 331 330 332 331 327 325 326 327 330 329 327 325 322 319 317 316 315 316 315 315 317 318 318 317 317 318 318
336 336 339 338 336 340 337 335 334 333 333 331 331 332 331 327 325 331 330 325 325 327 328 330 330 326 323 321 319 317 316 315 314 316 318 318 319 319 318 320 323 324 324
333 332 338 338 336 338 334 335 334 333 332 332 333 333 333 330 326 325 325 325 327 328 330 330 326 323 322 318 316 315 313 314 317 318 318 318 318 319 320 321 322 321 320
332 331 335 334 332 334 335 334 333 333 334 334 334 335 335 334 326 324 325 326 328 330 328 325 323 320 315 313 313 312 313 315 316 316 316 317 318 318 319 318 318 318 318
332 331 332 334 333 329 335 335 334 335 336 336 336 336 335 333 326 325 325 327 329 327 324 320 318 314 311 311 312 313 314 314 314 314 316 317 317 317 318 317 317 317 317
334 332 331 333 333 333 334 332 333 337 338 336 336 336 334 332 328 326 326 328 327 324 318 316 313 311 311 312 313 313 314 313 314 314 315 316 316 316 315 315 315 315 314
341 339 333 333 334 337 337 339 339 339 337 336 335 334 333 330 330 328 328 326 322 318 316 311 311 310 312 313 312 312 312 313 313 314 314 314 313 313 313 312 313 313 313
338 340 340 336 339 339 342 341 342 340 339 337 336 333 331 332 329 328 326 321 318 313 310 311 311 312 313 311 312 312 312 312 314 311 312 313 313 312 312 313 313 313 312
330 339 343 347 345 340 344 343 343 340 338 337 335 334 333 329 328 326 318 315 312 311 309 310 313 312 312 312 311 311 311 311 311 311 311 311 311 312 313 313 313 312 312
343 344 348 346 346 346 344 344 344 340 338 336 334 332 331 330 322 316 315 315 313 312 310 312 312 313 313 312 311 311 312 312 311 310 310 311 311 311 311 312 312 313 313
339 343 346 345 344 343 342 340 338 336 335 333 333 331 326 318 316 316 315 315 314 312 311 311 312 313 313 313 312 312 312 312 311 311 311 310 311 310 311 312 312 313 314
341 339 339 340 340 340 337 333 333 333 331 329 325 321 318 316 316 316 315 314 313 311 310 310 311 311 311 312 312 311 311 311 311 311 310 310 311 310 311 311 311 311 313
332 331 329 328 328 327 328 330 332 330 328 326 323 316 314 312 313 313 313 312 311 310 309 310 310 311 310 310 310 310 310 311 312 311 310 310 309 308 311 310 311 311 311
Wind_Speed
17 17 15 16 16 16 14 14 13 13 13 12 12 11 11 11 11 10 10 10 9 9 9 9 9 8 8 8 7 7 7 7 6 6 6 7 4 3 5 7 10 14 12
18 18 17 16 16 15 14 14 13 12 11 10 9 9 9 9 8 8 8 8 8 8 8 8 8 8 7 8 8 8 9 8 8 8 7 9 9 8 9 8 8 11 14
17 19 18 17 16 16 15 14 13 12 10 9 8 7 7 7 7 6 7 7 7 7 7 7 8 8 9 9 10 10 10 10 10 10 9 12 11 13 15 11 10 12 16
20 19 18 17 17 16 15 14 13 11 9 8 7 6 5 5 5 5 6 6 7 7 8 8 8 8 9 9 10 11 12 12 12 11 7 12 18 16 8 11 16 18 19
19 19 17 16 15 15 14 13 12 10 8 7 5 5 4 4 4 5 5 5 6 6 6 7 8 9 10 11 13 13 14 15 15 14 15 11 13 13 16 18 16 20 21
20 18 17 16 15 14 13 12 11 9 8 6 5 4 3 3 3 4 4 5 5 6 8 10 11 12 13 14 15 16 17 18 19 19 17 13 15 15 19 24 22 23 24
17 15 15 14 13 13 13 12 11 9 8 7 5 4 3 3 3 3 3 5 7 8 8 9 10 12 14 16 17 19 20 19 19 20 25 21 19 20 19 20 22 26 24
15 11 12 14 14 13 13 12 11 10 8 6 5 4 3 3 3 3 4 5 6 7 8 10 11 13 16 19 19 17 16 17 18 22 13 14 14 14 18 24 27 24 24
13 8 12 14 14 14 13 12 11 9 8 7 5 5 4 4 5 5 5 7 8 10 12 13 12 13 16 16 13 13 16 16 18 19 14 17 20 21 23 25 23 23 24
7 11 14 14 14 14 13 11 10 9 8 7 7 7 7 10 6 6 7 10 9 11 14 12 12 13 18 16 16 15 18 18 21 19 17 22 26 21 16 18 20 22 26
10 7 14 15 14 13 12 10 10 9 9 9 11 12 10 6 4 3 7 9 8 8 12 11 12 15 17 19 22 26 25 29 31 22 21 24 27 21 14 20 26 28 30
20 11 8 13 9 14 10 8 8 9 10 11 14 11 10 6 3 3 5 5 6 7 9 12 15 21 23 27 30 33 34 30 31 28 25 23 22 25 24 25 27 27 30
22 17 15 13 9 9 12 6 6 9 10 10 13 9 7 5 7 7 8 9 9 12 15 17 19 23 27 32 34 33 32 31 30 30 32 33 34 36 36 27 26 29 30
23 19 17 16 13 15 13 9 7 6 5 3 5 11 11 14 13 12 12 13 15 18 19 20 22 27 33 34 33 31 30 29 31 32 34 32 26 26 29 34 37 37 34
23 20 22 23 19 12 12 9 8 7 6 10 11 11 10 12 15 13 14 15 15 17 19 21 26 32 33 34 33 31 31 33 30 26 24 24 24 28 28 22 21 19 17
24 21 24 24 20 17 18 16 16 15 12 13 15 17 15 14 16 14 12 13 17 19 20 24 29 34 35 33 31 32 32 28 24 22 24 26 26 21 21 16 18 22 27
22 22 23 22 18 26 23 21 17 16 13 15 16 18 17 16 16 13 14 16 17 19 23 27 31 32 33 30 33 30 26 25 25 26 26 21 19 20 23 23 30 30 26
20 20 21 20 16 18 23 23 20 18 14 13 18 19 19 19 16 13 16 19 20 23 27 28 30 31 29 30 31 24 23 22 18 17 12 13 17 21 23 26 27 29 32
5 18 19 17 15 13 15 17 18 16 19 20 22 23 17 16 22 22 22 22 24 27 26 28 29 28 29 26 22 20 22 22 10 13 15 16 19 23 27 28 28 26 25
6 11 18 17 13 10 15 15 17 19 20 21 19 18 19 22 25 23 20 22 23 25 25 26 25 26 22 20 20 20 23 11 9 10 18 19 16 16 21 24 23 22 24
19 15 15 25 16 16 21 22 20 22 18 19 22 22 20 18 20 20 21 23 22 22 22 22 24 23 20 21 22 26 23 13 2 24 18 15 21 22 22 21 18 20 20
17 35 18 17 17 22 27 24 24 18 13 14 17 18 17 19 18 21 22 20 19 20 22 22 18 20 20 21 22 19 18 17 16 21 23 24 24 26 26 21 19 15 13
15 11 27 26 18 18 20 17 13 9 8 11 14 16 17 18 19 17 19 19 20 23 22 17 15 16 18 17 16 15 8 9 30 20 31 28 32 31 31 25 17 11 15
15 13 17 18 11 8 5 3 4 4 5 9 12 13 15 12 13 15 16 17 22 24 21 16 13 14 15 17 18 15 18 21 22 22 22 30 31 33 32 27 24 17 15
15 11 12 9 7 6 4 5 6 7 9 10 8 7 9 9 8 7 12 20 23 23 20 16 15 16 16 17 17 20 22 21 22 25 27 26 31 34 30 29 28 26 19
12 12 10 8 7 6 6 8 9 6 7 8 10 10 7 7 8 8 14 20 23 22 17 14 15 16 15 17 17 19 20 22 25 27 29 30 33 37 29 30 27 25 22
Wind_Direction
138 134 142 144 145 144 138 130 123 116 115 114 109 103 94 86 80 74 69 67 62 58 54 49 45 40 37 36 32 28 24 20 18 17 9 346 321 339 353 5 353 349 346
139 136 140 140 141 140 139 135 131 125 123 120 109 97 88 82 76 71 66 60 57 52 47 41 35 30 24 19 13 7 2 358 354 351 340 326 326 300 305 318 343 341 337
145 142 140 137 135 137 138 140 139 136 131 126 114 99 88 81 77 71 65 56 49 45 39 34 28 22 17 10 3 357 352 347 343 336 334 352 333 325 308 291 320 325 328
149 142 139 137 136 137 139 142 140 139 135 122 111 100 89 79 72 65 56 48 39 37 32 25 17 10 7 6 7 10 9 7 5 1 356 352 346 323 331 293 308 316 320
149 142 141 140 141 140 142 144 143 136 133 125 116 104 92 86 77 65 54 48 44 31 20 18 23 24 22 16 10 6 1 357 353 348 336 332 354 319 305 303 300 312 315
150 146 146 148 146 145 144 143 143 142 140 137 139 126 115 97 81 71 56 45 30 29 34 31 25 18 12 4 357 352 348 344 339 337 334 319 307 315 293 302 301 304 305
133 146 150 149 150 147 150 150 148 148 152 151 145 131 121 106 87 69 52 39 43 42 35 25 14 6 359 352 347 342 335 333 334 341 333 319 303 290 297 297 287 289 294
150 136 157 154 156 155 155 152 155 159 152 145 142 136 125 115 101 87 65 58 46 32 16 4 355 349 349 350 346 346 344 335 324 335 350 359 343 311 298 292 287 287 291
157 184 172 163 161 160 160 161 163 157 156 154 149 139 134 119 105 82 68 43 19 10 3 356 345 345 348 349 350 339 325 317 313 323 312 322 318 303 292 286 282 289 289
170 153 170 163 162 165 166 166 166 162 158 152 135 118 110 95 104 43 72 26 16 6 6 359 339 338 341 336 326 316 308 302 307 309 302 309 316 305 290 271 269 273 281
186 159 172 168 167 168 166 168 164 160 155 143 129 116 112 119 95 47 22 5 357 347 352 334 324 326 321 314 313 311 303 299 301 295 300 306 301 304 279 281 288 289 286
182 166 160 147 150 162 136 150 164 162 155 147 145 142 134 134 151 348 334 343 322 317 314 298 300 306 311 314 309 305 302 300 296 293 283 279 287 293 302 301 300 297 294
192 184 180 159 159 179 163 167 189 165 171 167 167 180 160 168 170 205 242 262 277 283 283 287 299 314 311 310 306 304 301 300 297 291 286 279 273 273 286 295 295 296 298
187 191 179 166 169 209 184 173 182 173 192 212 249 231 207 200 218 233 249 250 265 272 280 295 309 311 312 311 310 308 305 304 303 297 295 295 299 296 290 286 290 293 296
175 178 174 163 182 181 181 169 168 176 210 228 246 233 238 243 235 245 253 265 272 278 290 300 306 310 315 311 309 309 307 303 304 304 306 299 294 293 299 303 304 295 291
175 184 187 185 197 172 170 170 177 190 215 233 235 243 244 252 245 252 261 264 272 284 294 300 308 313 314 312 309 304 307 306 301 299 294 294 297 302 300 295 294 291 291
178 189 197 199 200 205 183 185 196 199 198 231 248 255 256 262 259 260 269 274 286 295 301 307 310 311 311 312 307 308 307 301 304 302 299 302 301 302 302 296 293 293 295
180 192 198 204 209 207 218 219 214 215 222 230 234 245 251 257 265 294 299 292 298 302 307 311 311 313 314 315 312 313 309 310 312 315 322 304 308 305 296 294 294 293 288
139 189 204 211 219 236 236 225 222 209 221 232 237 247 260 292 308 304 296 300 303 306 313 312 316 320 321 320 323 321 322 328 328 318 322 314 305 300 298 296 294 293 295
343 275 212 214 221 228 243 215 210 212 219 227 244 256 279 301 297 297 299 303 303 312 315 319 322 326 328 330 336 333 331 351 309 338 326 315 317 319 311 305 302 293 294
199 225 241 198 201 212 206 209 209 219 224 239 264 271 283 295 300 301 305 305 313 320 325 330 328 337 343 346 349 341 351 10 10 336 341 348 340 344 349 331 317 302 312
195 211 241 228 218 214 214 227 225 228 243 270 270 283 283 301 305 309 310 312 326 331 333 333 341 344 348 350 349 350 342 349 324 341 352 357 356 348 353 348 334 326 320
155 186 226 234 227 228 236 212 216 232 254 261 264 286 301 304 313 320 320 324 331 337 335 334 336 334 338 344 349 338 325 307 325 330 338 346 349 353 352 354 353 340 333
184 191 222 238 250 237 209 209 206 243 233 254 270 285 301 312 334 339 324 323 327 332 333 337 325 325 323 330 335 338 330 315 313 320 327 337 339 345 349 354 357 333 321
200 215 204 198 196 201 232 224 218 208 232 245 273 294 310 334 0 331 297 311 318 324 330 327 335 331 327 327 326 330 327 327 325 323 315 326 331 337 339 346 351 347 334
161 160 147 147 147 147 168 185 199 224 237 263 279 293 310 292 305 303 299 303 312 317 326 327 322 329 330 331 327 326 326 324 318 320 316 323 331 331 333 333 345 350 349